�������l�o���
Date,Time,MP-1(��Sv/h),MP-2(��Sv/h),MP-3(��Sv/h),MP-4(��Sv/h),MP-5(��Sv/h),MP-6(��Sv/h),MP-7(��Sv/h),MP-8(��Sv/h),����,����(m/s),���J
2020/12/20,00:00,0.668,0.959,0.609,1.217,0.849,0.381,0.675,0.634,�k�k��,2.8,��
2020/12/20,00:10,0.668,0.960,0.610,1.216,0.848,0.380,0.674,0.635,�k�k��,3.3,��
2020/12/20,00:20,0.669,0.959,0.608,1.217,0.852,0.378,0.674,0.635,�k��,2.6,��
2020/12/20,00:30,0.668,0.959,0.611,1.214,0.847,0.380,0.674,0.636,��,2.8,��
2020/12/20,00:40,0.668,0.959,0.609,1.217,0.853,0.379,0.674,0.633,��,3.5,��
2020/12/20,00:50,0.668,0.958,0.610,1.215,0.852,0.380,0.676,0.635,��,3.2,��
2020/12/20,01:00,0.668,0.959,0.610,1.215,0.849,0.379,0.676,0.635,��,4.1,��
2020/12/20,01:10,0.667,0.960,0.611,1.216,0.849,0.378,0.674,0.636,��,3.7,��
2020/12/20,01:20,0.667,0.960,0.609,1.213,0.850,0.380,0.674,0.636,��,4.6,��
2020/12/20,01:30,0.670,0.958,0.608,1.215,0.849,0.381,0.674,0.636,��,5.3,��
2020/12/20,01:40,0.668,0.959,0.610,1.216,0.851,0.381,0.675,0.637,���쐼,5.4,��
2020/12/20,01:50,0.670,0.958,0.610,1.217,0.850,0.380,0.674,0.633,��,4.8,��
2020/12/20,02:00,0.669,0.961,0.610,1.215,0.849,0.380,0.676,0.636,��,3.9,��
2020/12/20,02:10,0.668,0.959,0.610,1.214,0.850,0.380,0.674,0.635,��,2.9,��
2020/12/20,02:20,0.669,0.959,0.612,1.215,0.847,0.380,0.675,0.636,��,3.2,��
2020/12/20,02:30,0.668,0.958,0.610,1.216,0.851,0.380,0.675,0.636,��,1.7,��
2020/12/20,02:40,0.668,0.960,0.610,1.217,0.851,0.378,0.673,0.636,���k��,1.7,��
2020/12/20,02:50,0.669,0.959,0.611,1.214,0.851,0.381,0.676,0.637,�k��,1.7,��
2020/12/20,03:00,0.670,0.959,0.609,1.216,0.850,0.380,0.675,0.637,��,1.9,��
2020/12/20,03:10,0.668,0.959,0.611,1.217,0.850,0.379,0.675,0.637,�k��,1.8,��
2020/12/20,03:20,0.671,0.961,0.611,1.215,0.850,0.379,0.675,0.637,�k��,1.8,��
2020/12/20,03:30,0.670,0.960,0.609,1.214,0.850,0.380,0.676,0.636,��,1.9,�L
2020/12/20,03:40,0.670,0.959,0.612,1.214,0.852,0.379,0.676,0.635,��,1.7,�L
2020/12/20,03:50,0.671,0.959,0.610,1.218,0.851,0.380,0.675,0.637,�k�k��,2.4,��
2020/12/20,04:00,0.668,0.960,0.612,1.213,0.850,0.381,0.676,0.635,�k�k��,3.0,��
2020/12/20,04:10,0.669,0.959,0.611,1.213,0.849,0.380,0.675,0.637,�k�k��,2.9,��
2020/12/20,04:20,0.669,0.959,0.611,1.215,0.851,0.379,0.673,0.637,�k,2.6,��
2020/12/20,04:30,0.669,0.959,0.610,1.216,0.850,0.379,0.676,0.635,�k,2.5,��
2020/12/20,04:40,0.670,0.959,0.609,1.216,0.849,0.379,0.676,0.636,�k�k��,4.0,��
2020/12/20,04:50,0.668,0.959,0.609,1.215,0.849,0.379,0.674,0.636,�k�k��,4.8,��
2020/12/20,05:00,0.667,0.960,0.610,1.216,0.851,0.379,0.674,0.636,�k�k��,3.8,��
2020/12/20,05:10,0.669,0.959,0.609,1.215,0.851,0.379,0.674,0.635,�k�k��,2.9,��
2020/12/20,05:20,0.668,0.958,0.610,1.215,0.850,0.379,0.674,0.636,�k�k��,4.3,��
2020/12/20,05:30,0.668,0.958,0.608,1.215,0.849,0.380,0.676,0.637,�k,4.9,��
2020/12/20,05:40,0.669,0.960,0.609,1.215,0.849,0.378,0.675,0.635,�k,5.6,��
2020/12/20,05:50,0.667,0.959,0.611,1.217,0.850,0.378,0.674,0.635,�k,5.8,��
2020/12/20,06:00,0.666,0.958,0.610,1.216,0.851,0.379,0.674,0.635,�k,5.0,��
2020/12/20,06:10,0.668,0.959,0.610,1.214,0.848,0.378,0.673,0.635,�k,5.4,��
2020/12/20,06:20,0.668,0.958,0.609,1.215,0.849,0.377,0.674,0.634,�k,4.9,��
2020/12/20,06:30,0.666,0.959,0.609,1.214,0.849,0.380,0.676,0.634,���k��,4.7,��
2020/12/20,06:40,0.668,0.959,0.609,1.218,0.850,0.378,0.675,0.637,�k,5.0,��
2020/12/20,06:50,0.668,0.957,0.609,1.214,0.847,0.378,0.674,0.636,�k,6.2,��
2020/12/20,07:00,0.667,0.959,0.608,1.215,0.851,0.377,0.675,0.636,�k,6.4,��
2020/12/20,07:10,0.668,0.956,0.608,1.214,0.848,0.377,0.673,0.635,�k,6.1,��
2020/12/20,07:20,0.667,0.960,0.610,1.216,0.849,0.378,0.675,0.636,�k,3.8,��
2020/12/20,07:30,0.669,0.959,0.610,1.215,0.849,0.378,0.673,0.635,�k,4.4,��
2020/12/20,07:40,0.667,0.960,0.610,1.214,0.847,0.379,0.674,0.635,�k,4.3,��
2020/12/20,07:50,0.667,0.959,0.610,1.215,0.849,0.379,0.675,0.635,�k,4.0,��
2020/12/20,08:00,0.668,0.959,0.612,1.216,0.848,0.379,0.675,0.637,�k,2.9,��
2020/12/20,08:10,0.667,0.957,0.613,1.216,0.849,0.380,0.676,0.635,�k�k��,2.0,��
2020/12/20,08:20,0.668,0.959,0.610,1.215,0.849,0.379,0.674,0.637,�k�k��,2.0,��
2020/12/20,08:30,0.667,0.959,0.610,1.217,0.848,0.378,0.675,0.636,�k��,0.6,��
2020/12/20,08:40,0.671,0.960,0.610,1.217,0.848,0.378,0.674,0.634,��,1.5,��
2020/12/20,08:50,0.669,0.961,0.610,1.217,0.849,0.379,0.675,0.634,�k��,1.2,��
2020/12/20,09:00,0.670,0.959,0.611,1.216,0.850,0.381,0.675,0.635,��,0.8,��
2020/12/20,09:10,0.671,0.962,0.611,1.216,0.849,0.379,0.675,0.634,���k��,0.9,��
2020/12/20,09:20,0.669,0.962,0.610,1.217,0.849,0.380,0.676,0.634,���k��,1.9,��
2020/12/20,09:30,0.671,0.958,0.612,1.214,0.850,0.380,0.676,0.636,�k��,2.2,��
2020/12/20,09:40,0.671,0.960,0.611,1.213,0.850,0.380,0.677,0.635,���k��,2.3,��
2020/12/20,09:50,0.671,0.960,0.611,1.215,0.848,0.380,0.675,0.636,�k��,3.3,��
2020/12/20,10:00,0.670,0.961,0.611,1.217,0.850,0.381,0.676,0.636,�k�k��,1.9,��
2020/12/20,10:10,0.672,0.964,0.613,1.216,0.851,0.379,0.674,0.635,�k��,2.2,��
2020/12/20,10:20,0.670,0.962,0.611,1.215,0.851,0.381,0.674,0.636,���k��,3.9,��
2020/12/20,10:30,0.671,0.961,0.612,1.215,0.851,0.381,0.672,0.637,�k�k��,1.9,��
2020/12/20,10:40,0.671,0.961,0.612,1.217,0.852,0.380,0.675,0.635,�k,3.3,��
2020/12/20,10:50,0.670,0.962,0.611,1.217,0.852,0.380,0.675,0.637,�k�k��,4.1,��
2020/12/20,11:00,0.671,0.964,0.611,1.216,0.853,0.380,0.674,0.638,�k�k��,2.6,��
2020/12/20,11:10,0.671,0.962,0.610,1.218,0.853,0.381,0.674,0.636,�k��,8.7,�L
2020/12/20,11:20,0.672,0.961,0.613,1.218,0.853,0.379,0.676,0.637,�k,4.2,�L
2020/12/20,11:30,0.671,0.962,0.613,1.218,0.853,0.381,0.676,0.637,�k�k��,3.3,��
2020/12/20,11:40,0.673,0.958,0.613,1.216,0.856,0.380,0.675,0.637,���k��,4.2,��
2020/12/20,11:50,0.673,0.960,0.614,1.216,0.854,0.382,0.677,0.637,�k�k��,3.6,��
2020/12/20,12:00,0.672,0.963,0.614,1.219,0.854,0.380,0.679,0.637,�k,4.6,��
2020/12/20,12:10,0.673,0.964,0.614,1.218,0.854,0.380,0.675,0.637,�k�k��,6.0,��
2020/12/20,12:20,0.671,0.964,0.614,1.220,0.854,0.380,0.675,0.637,�k�k��,6.1,��
2020/12/20,12:30,0.673,0.966,0.614,1.218,0.853,0.380,0.676,0.637,�k,4.8,��
2020/12/20,12:40,0.674,0.965,0.613,1.219,0.856,0.381,0.678,0.637,�k�k��,5.0,��
2020/12/20,12:50,0.675,0.965,0.614,1.219,0.855,0.381,0.678,0.637,�k��,5.1,��
2020/12/20,13:00,0.674,0.966,0.611,1.218,0.854,0.382,0.678,0.637,�k�k��,4.9,��
2020/12/20,13:10,0.675,0.963,0.613,1.220,0.856,0.381,0.677,0.636,�k�k��,4.3,��
2020/12/20,13:20,0.674,0.963,0.615,1.218,0.855,0.380,0.678,0.638,�k�k��,5.4,��
2020/12/20,13:30,0.673,0.967,0.614,1.218,0.856,0.382,0.677,0.637,�k�k��,5.5,��
2020/12/20,13:40,0.674,0.964,0.611,1.218,0.854,0.381,0.678,0.638,�k�k��,4.6,��
2020/12/20,13:50,0.673,0.965,0.612,1.218,0.856,0.381,0.677,0.637,�k�k��,5.6,��
2020/12/20,14:00,0.673,0.966,0.613,1.219,0.855,0.381,0.678,0.638,�k�k��,7.6,��
2020/12/20,14:10,0.674,0.965,0.613,1.219,0.856,0.381,0.680,0.636,�k�k��,6.7,��
2020/12/20,14:20,0.674,0.966,0.614,1.221,0.856,0.381,0.678,0.636,�k�k��,6.2,��
2020/12/20,14:30,0.674,0.963,0.614,1.218,0.856,0.381,0.679,0.638,�k�k��,5.8,��
2020/12/20,14:40,0.674,0.968,0.615,1.218,0.857,0.381,0.678,0.637,�k��,6.6,��
2020/12/20,14:50,0.674,0.965,0.613,1.218,0.855,0.379,0.677,0.638,�k�k��,5.9,��
2020/12/20,15:00,0.673,0.966,0.613,1.220,0.855,0.380,0.676,0.638,�k�k��,7.1,��
2020/12/20,15:10,0.675,0.964,0.615,1.220,0.857,0.382,0.676,0.636,�k�k��,6.0,��
2020/12/20,15:20,0.671,0.966,0.612,1.218,0.857,0.382,0.678,0.637,�k�k��,4.8,��
2020/12/20,15:30,0.672,0.965,0.614,1.220,0.858,0.380,0.678,0.636,�k�k��,4.3,��
2020/12/20,15:40,0.675,0.968,0.613,1.218,0.854,0.381,0.677,0.637,�k��,5.9,��
2020/12/20,15:50,0.674,0.964,0.613,1.219,0.856,0.381,0.677,0.636,�k�k��,5.5,��
2020/12/20,16:00,0.674,0.965,0.613,1.220,0.856,0.381,0.676,0.639,�k�k��,4.5,��
2020/12/20,16:10,0.674,0.967,0.612,1.218,0.856,0.380,0.678,0.637,�k�k��,3.0,��
2020/12/20,16:20,0.672,0.968,0.613,1.218,0.855,0.380,0.677,0.637,�k�k��,3.9,��
2020/12/20,16:30,0.673,0.966,0.612,1.219,0.857,0.380,0.677,0.637,�k�k��,4.2,��
2020/12/20,16:40,0.673,0.966,0.614,1.219,0.856,0.380,0.677,0.636,�k�k��,3.7,��
2020/12/20,16:50,0.671,0.964,0.613,1.220,0.855,0.381,0.675,0.636,�k�k��,3.8,��
2020/12/20,17:00,0.671,0.963,0.611,1.218,0.857,0.379,0.675,0.635,�k�k��,4.2,��
2020/12/20,17:10,0.670,0.964,0.613,1.217,0.855,0.379,0.677,0.637,�k�k��,3.5,��
2020/12/20,17:20,0.672,0.966,0.613,1.219,0.854,0.380,0.675,0.636,�k�k��,4.5,��
2020/12/20,17:30,0.672,0.964,0.612,1.218,0.855,0.380,0.677,0.635,�k�k��,5.2,��
2020/12/20,17:40,0.672,0.966,0.612,1.218,0.856,0.380,0.677,0.637,�k�k��,5.1,��
2020/12/20,17:50,0.671,0.965,0.612,1.219,0.856,0.380,0.673,0.636,�k��,5.1,��
2020/12/20,18:00,0.671,0.964,0.613,1.218,0.854,0.379,0.675,0.637,�k�k��,4.2,��
2020/12/20,18:10,0.670,0.966,0.613,1.221,0.853,0.381,0.677,0.635,�k�k��,4.4,��
2020/12/20,18:20,0.670,0.964,0.613,1.220,0.855,0.380,0.673,0.635,�k�k��,3.9,��
2020/12/20,18:30,0.672,0.967,0.611,1.218,0.853,0.381,0.674,0.635,�k�k��,4.7,��
2020/12/20,18:40,0.670,0.965,0.612,1.218,0.853,0.379,0.675,0.636,�k��,5.3,��
2020/12/20,18:50,0.672,0.963,0.613,1.218,0.855,0.379,0.676,0.636,�k��,4.7,��
2020/12/20,19:00,0.668,0.965,0.610,1.220,0.853,0.379,0.676,0.636,�k��,4.3,��
2020/12/20,19:10,0.672,0.963,0.611,1.219,0.854,0.379,0.676,0.635,�k�k��,5.6,��
2020/12/20,19:20,0.669,0.965,0.611,1.220,0.855,0.379,0.675,0.636,�k��,4.0,��
2020/12/20,19:30,0.671,0.964,0.611,1.220,0.853,0.380,0.675,0.636,���k��,4.0,��
2020/12/20,19:40,0.670,0.964,0.612,1.217,0.855,0.381,0.676,0.636,���k��,4.2,��
2020/12/20,19:50,0.670,0.965,0.613,1.219,0.855,0.379,0.674,0.636,��,3.1,��
2020/12/20,20:00,0.671,0.963,0.613,1.217,0.855,0.381,0.674,0.635,��,2.5,��
2020/12/20,20:10,0.671,0.962,0.614,1.219,0.853,0.378,0.674,0.636,���쐼,3.0,��
2020/12/20,20:20,0.671,0.965,0.613,1.216,0.854,0.380,0.675,0.633,��,3.9,��
2020/12/20,20:30,0.672,0.963,0.611,1.217,0.854,0.380,0.675,0.635,��,4.7,��
2020/12/20,20:40,0.670,0.965,0.612,1.218,0.853,0.378,0.675,0.635,��,3.9,��
2020/12/20,20:50,0.671,0.963,0.612,1.218,0.852,0.379,0.674,0.635,��,4.2,��
2020/12/20,21:00,0.670,0.966,0.610,1.217,0.855,0.379,0.675,0.635,��,6.2,��
2020/12/20,21:10,0.672,0.963,0.611,1.218,0.853,0.380,0.674,0.635,��,6.7,��
2020/12/20,21:20,0.671,0.965,0.612,1.218,0.852,0.380,0.674,0.634,��,5.6,��
2020/12/20,21:30,0.669,0.963,0.611,1.218,0.853,0.378,0.675,0.636,��,4.7,��
2020/12/20,21:40,0.670,0.965,0.612,1.217,0.853,0.379,0.675,0.634,���k��,4.6,��
2020/12/20,21:50,0.670,0.964,0.612,1.219,0.853,0.380,0.675,0.635,���k��,3.5,��
2020/12/20,22:00,0.670,0.962,0.610,1.217,0.854,0.379,0.676,0.634,���k��,2.6,��
2020/12/20,22:10,0.669,0.964,0.612,1.218,0.854,0.379,0.673,0.637,�k��,3.6,��
2020/12/20,22:20,0.669,0.965,0.611,1.219,0.854,0.379,0.674,0.637,�k��,2.5,��
2020/12/20,22:30,0.670,0.965,0.612,1.218,0.852,0.381,0.673,0.636,�k��,1.5,��
2020/12/20,22:40,0.671,0.965,0.613,1.216,0.854,0.378,0.674,0.635,�k,1.4,��
2020/12/20,22:50,0.671,0.964,0.610,1.218,0.854,0.380,0.673,0.636,�k,0.9,��
2020/12/20,23:00,0.670,0.964,0.610,1.218,0.854,0.380,0.674,0.635,�k,0.6,��
2020/12/20,23:10,0.671,0.962,0.612,1.221,0.853,0.379,0.674,0.634,�k�k��,0.9,��
2020/12/20,23:20,0.669,0.962,0.611,1.216,0.851,0.379,0.673,0.637,�k,1.2,��
2020/12/20,23:30,0.670,0.962,0.610,1.218,0.852,0.378,0.674,0.636,�k,2.0,��
2020/12/20,23:40,0.671,0.962,0.612,1.216,0.854,0.380,0.673,0.637,�k�k��,2.0,��
2020/12/20,23:50,0.671,0.966,0.612,1.217,0.853,0.378,0.673,0.636,�k�k��,2.2,��
